Regional Weather Roundup
Issued by NWS Northern Indiana

Home | Current Version | Previous Version | Graphics & Text | Print | Product List | Glossary On
Versions: 1 2 3 4 5 6 7 8 9 10 11 12 13 14 15 16 17 18 19 20 21 22 23 24 25 26 27 28 29 30 31 32 33 34 35 36 37 38 39 40 41 42 43 44 45 46 47 48 49 50
000
ASUS43 KIWX 201801
RWRIWX

KIWX WEATHER ROUNDUP
NATIONAL WEATHER SERVICE NORTHERN INDIANA
200 PM EDT SUN AUG 20 2017

NOTE: "FAIR" INDICATES FEW OR NO CLOUDS BELOW 12,000 FEET WITH NO
SIGNIFICANT WEATHER AND/OR OBSTRUCTIONS TO VISIBILITY.

* THESE STATIONS ARE NOT UNDER NWS QUALITY CONTROL. THEY ALSO MAY NOT
  REPORT WEATHER SUCH AS PRECIPITATION OR FOG.

INZ001>027-201900-
NORTHERN INDIANA

CITY           SKY/WX    TMP DP  RH WIND       PRES   REMARKS
GARY*          PTSUNNY   86  61  42 SE6       30.04F
SOUTH BEND     MOSUNNY   82  64  54 SW7       30.06F
6HR MIN TEMP:  59; 6HR MAX TEMP:  84;

GOSHEN         MOSUNNY   84  64  50 VRB7      30.07F
6HR MIN TEMP:  60; 6HR MAX TEMP:  84;

MONTICELLO*    MOSUNNY   84  65  52 S7        30.05F
6HR MIN TEMP:  63; 6HR MAX TEMP:  85;

FORT WAYNE     PTSUNNY   83  65  54 S7        30.09R
6HR MIN TEMP:  62; 6HR MAX TEMP:  85;

PERU/GRISSOM   MOSUNNY   85  66  53 SW8       30.07S
6HR MIN TEMP:  64; 6HR MAX TEMP:  85;


$$
INZ028>050-201900-
CENTRAL INDIANA

CITY           SKY/WX    TMP DP  RH WIND       PRES   REMARKS
LAFAYETTE      CLOUDY    84  65  52 VRB3      30.05F
6HR MIN TEMP:  63; 6HR MAX TEMP:  86;

KOKOMO*        SUNNY     85  65  51 W7        30.09S
6HR MIN TEMP:  63; 6HR MAX TEMP:  86;

MUNCIE*        MOSUNNY   88  62  41 VRB3      30.09R
6HR MIN TEMP:  70; 6HR MAX TEMP:  88;

INDIANAPOLIS   CLOUDY    87  63  44 VRB6      30.06F
6HR MIN TEMP:  69; 6HR MAX TEMP:  88;


$$
MIZ043>046-050>051-056>058-064>065-071>073-077>080-201900-
SOUTHWEST LOWER MICHIGAN

CITY           SKY/WX    TMP DP  RH WIND       PRES   REMARKS
BATTLE CREEK   CLOUDY    81  59  47 S10       30.09F
6HR MIN TEMP:  59; 6HR MAX TEMP:  84;

BENTON HARBOR  MOSUNNY   84  59  42 W7        30.05F
6HR MIN TEMP:  59; 6HR MAX TEMP:  86;

COLDWATER*     MOSUNNY   83  56  40 CALM      30.10S
6HR MIN TEMP:  60; 6HR MAX TEMP:  83;

HILLSDALE*     PTSUNNY   79  61  53 S5        30.10F
HOLLAND        MOSUNNY   81  63  54 S8        30.07F
6HR MIN TEMP:  61; 6HR MAX TEMP:  82;

GRAND RAPIDS   CLOUDY    81  58  45 SW13      30.07F
6HR MIN TEMP:  59; 6HR MAX TEMP:  83;

KALAMAZOO      MOSUNNY   82  56  40 S6        30.08F
6HR MIN TEMP:  59; 6HR MAX TEMP:  84;

STURGIS*       SUNNY     80  63  56 S5        30.08F
6HR MIN TEMP:  60; 6HR MAX TEMP:  82;

THREE RIVERS*  FAIR      83  59  42 S6        30.08F
6HR MIN TEMP:  59; 6HR MAX TEMP:  85;


$$
OHZ001>008-015>018-024>025-201900-
NORTHWEST OHIO

CITY           SKY/WX    TMP DP  RH WIND       PRES   REMARKS
DEFIANCE       SUNNY     83  63  50 CALM      30.09F
6HR MIN TEMP:  60; 6HR MAX TEMP:  83;

FINDLAY        MOSUNNY   84  65  52 SW5       30.09F
6HR MIN TEMP:  64; 6HR MAX TEMP:  84;

TOLEDO EXPRESS SUNNY     82  62  50 S8        30.09F
6HR MIN TEMP:  60; 6HR MAX TEMP:  83;

TOLEDO METCALF SUNNY     83  61  47 MISG      30.10F
6HR MIN TEMP:  64; 6HR MAX TEMP:  85;

LIMA           PTSUNNY   84  68  58 S9        30.10F
6HR MIN TEMP:  65; 6HR MAX TEMP:  85;


$$
AND FOR LAKE MICHIGAN COASTAL AND OPEN LAKE BUOY OBSERVATIONS

STATION/POSITION TEMP    WIND        PRES    VSBY  WAVE
                 AIR SEA DIR/SP/G                  HT/PER
                 (F)     (DEG/KT/KT) (MB)    (MI)  (FT/S)
CALUMET HARBOR    83     170/  7/ 10 1016.3F
MICHIGAN CITY     80     200/  3/  4   N/A
BURNS HARBOR      82     290/  1/  8 1017.6F
SAINT JOSEPH      82     240/  4/  6 1019.0
SOUTH LAKE BUOY   72 71  160/ 10/ 12 1017.6          1/ 3
4 MI NW BRIDGMAN  79 76  340/  2/  2 1017.2F         1
MICHIGAN CITY     78 76  360/  2/  2   N/A           1

$$
&&




USA.gov is the U.S. government's official web portal to all federal, state and local government web resources and services.